Das Wetter in  D-61279 Heinzenberg / Taunus





Wetter Minimum- & Maximum-Werte im August 2007

Standort: Heinzenberg / Taunus - Höhe 297 m         8 24' 1" Ost 50 21' 51" Nord
(   3-stündige Aktualisierung    letzte Aktualisierung um 19:04 am 31.08.2007  )


Messgrösse

Minimum

Maximum

Durchschnitt

Temperatur West /
Luftfeuchte West
Anklicken für Monats-Diagramm

5,2 C

06:52
30.08.2007

36 %

18:30
06.08.2007

30,8 C

16:30
06.08.2007

99 %

12:02
09.08.2007

Temp

16,5 C

Feuchte

78 %

Temperatur Ost /
Luftfeuchte Ost
Anklicken für Monats-Diagramm

5,1 C

06:42
30.08.2007

--

--
--

31,5 C

17:05
06.08.2007

--

--
--

16,9 C

--

Luftdruck Anklicken für Monats-Diagramm

1001,9 hPa

00:39
16.08.2007

1028,8 hPa

08:56
25.08.2007

1015,2 hPa

Taupunkt

2,9 C

06:52
30.08.2007

21,5 C

15:53
10.08.2007

12,4 C

Windchill
( gefühlte Temperatur )

5,2 C

06:52
30.08.2007

30,8 C

16:30
06.08.2007

15,6 C

Windgeschwindigkeit /
Windrichtung
Anklicken für Monats-Diagramm

---

51,0 km/h / W

13:09
16.08.2007

6,1 km/h
W-SW

Helligkeit /
Sonnenschein
Anklicken für Monats-Diagramm
Anklicken für Monats-Diagramm

Sonnenschein:

205:20 Stunden

Max: 13:41 Std am
05.08.2007

115 klux

12:39
17.08.2007

34 klux

Solarstrahlung Anklicken für Monats-Diagramm

---

787 W/m

12:39
17.08.2007

247 W/m

Regenmenge
    August 2007
Anklicken für Monats-Diagramm

Insgesamt 124,5 l/m

in 80:27 Stunden
an 15 Tagen

30,1 l/m

00:21
09.08.2007

Gesamtmenge

124,5 l/m

Regen-Tage
    August 2007
Anklicken für Monats-Diagramm

>   0 mm/Tag

>   2 mm/Tag

>   5 mm/Tag

> 10 mm/Tag

> 20 mm/Tag

15 Tage     
7 Tage     
5 Tage     
4 Tage     
4 Tage     

Eisige Tage August 2007 / 2006

Tmin ≤ -10C     

0 Tage

/

0 Tage

Eistage August 2007 / 2006

Tmax <     0C     

0 Tage

/

0 Tage

Frosttage August 2007 / 2006

Tmin ≤     0C     

0 Tage

/

0 Tage

Kalte Tage August 2007 / 2006

Tmax <   10C     

0 Tage

/

0 Tage

Warme Tage August 2007 / 2006

Tmax ≥   20C     

23 Tage

/

25 Tage

Sommertage August 2007 / 2006

Tmax ≥   25C     

8 Tage

/

6 Tage

Heisse Tage August 2007 / 2006

Tmax ≥   30C     

  1 Tag

/

0 Tage


Monatsdiagramm August 2007

Die Kurven zeigen den Durchschnittswert des jeweiligen Tages an


Wetter-Monatsübersicht August 2007
Datum
  Temperatur
   Luftdruck
   Wind
  Regen
   Luftfeuchte
   Helligkeit

Sonnen-
schein


Temp.

Min.
Temp.

Max.
Temp.


Luftdruck

Min.
Luftdruck

Max.
Luftdruck

-Geschw.
Haupt-Richtg.

Max.
Wind

Menge /
Dauer


Feuchte

Min.
Feuchte

Max.
Feuchte


Helligkeit

Max.
Helligkeit

1.
August
15,0 C6,4 C
06:17
23,6 C
17:22
1017,6 hPa1012,6 hPa
20:50
1021,5 hPa
06:32
7,4 km/h
SO
29,4 km/h
14:47  
---
67 %43 %
17:37
91 %
08:12
50,7 klux89,9 klux
13:02
12:45 Std 
2.
August
15,1 C10,0 C
04:46
19,9 C
14:21
1011,4 hPa1008,4 hPa
14:21
1016,4 hPa
23:57
9,4 km/h
W-SW
38,7 km/h
15:11  
0,9 l/m
1:20 Stunden
80 %72 %
20:06
90 %
09:06
23,3 klux86,4 klux
10:36
3:40 Std 
3.
August
16,4 C12,0 C
06:37
23,2 C
17:42
1021,0 hPa1016,4 hPa
00:02
1025,9 hPa
23:53
7,5 km/h
NW
25,6 km/h
12:42  
---
75 %49 %
17:57
91 %
07:17
39,0 klux104,0 klux
12:52
8:04 Std 
4.
August
17,2 C8,5 C
06:18
27,3 C
17:28
1024,6 hPa1021,1 hPa
18:28
1027,3 hPa
08:08
1,7 km/h
NW
13,3 km/h
15:08  
---
66 %37 %
16:48
90 %
08:18
50 klux89 klux
12:58
13:40 Std 
5.
August
19,6 C10,4 C
06:19
28,9 C
16:54
1018,2 hPa1012,8 hPa
19:29
1023,7 hPa
01:04
9,5 km/h
SO
30,8 km/h
13:09  
---
62 %39 %
17:29
87 %
08:14
50,6 klux88,8 klux
13:04
13:41 Std 
6.
August
21,2 C11,5 C
06:25
30,8 C
16:30
1010,7 hPa1007,3 hPa
18:40
1014,1 hPa
00:40
6,6 km/h
O-SO
28,3 km/h
10:25  
---
59 %36 %
18:30
82 %
08:05
49,7 klux87,5 klux
13:10
12:20 Std 
7.
August
17,6 C16,1 C
23:56
21,0 C
00:00
1012,8 hPa1011,4 hPa
00:00
1014,0 hPa
23:16
2,8 km/h
W-NW
13,8 km/h
01:40  
25,5 l/m
12:41 Stunden
91 %71 %
00:00
96 %
19:35
6,1 klux19,8 klux
15:05
--- 
8.
August
14,4 C13,0 C
23:16
16,1 C
00:01
1013,2 hPa1012,1 hPa
04:06
1014,4 hPa
13:51
2,3 km/h
NW
15,4 km/h
12:06  
24,6 l/m
16:45 Stunden
97 %96 %
00:01
98 %
14:01
4,9 klux14,4 klux
14:46
--- 
9.
August
14,2 C12,6 C
04:11
16,3 C
19:52
1011,3 hPa1009,9 hPa
19:52
1013,4 hPa
00:01
0,6 km/h
NW
9,0 km/h
04:01  
30,1 l/m
13:56 Stunden
99 %98 %
00:01
99 %
12:02
4,5 klux12,7 klux
14:42
--- 
10.
August
18,5 C15,9 C
00:43
22,9 C
18:53
1011,7 hPa1010,9 hPa
03:23
1013,8 hPa
23:49
2,5 km/h
NW
21,0 km/h
19:13  
2,3 l/m
2:35 Stunden
96 %83 %
19:38
99 %
00:03
24,5 klux96,8 klux
12:18
3:06 Std 
11.
August
18,4 C14,3 C
23:55
23,3 C
17:39
1013,1 hPa1011,1 hPa
17:39
1014,1 hPa
05:19
8,2 km/h
W
26,3 km/h
16:34  
---
82 %62 %
18:29
94 %
02:54
37,1 klux98,4 klux
13:19
7:55 Std 
12.
August
17,2 C10,9 C
05:50
24,7 C
17:05
1011,1 hPa1007,9 hPa
17:25
1013,6 hPa
07:55
2,3 km/h
W-SW
17,6 km/h
14:15  
---
78 %57 %
17:20
94 %
09:05
45,6 klux95,7 klux
13:05
11:05 Std 
13.
August
17,5 C13,4 C
23:51
23,3 C
16:51
1011,5 hPa1009,0 hPa
01:06
1014,4 hPa
23:51
7,7 km/h
W
37,8 km/h
14:01  
5,0 l/m
1:20 Stunden
77 %50 %
18:06
96 %
10:01
40,5 klux99,4 klux
12:51
8:25 Std 
14.
August
17,8 C10,4 C
06:16
25,9 C
17:21
1011,9 hPa1008,0 hPa
19:26
1014,7 hPa
06:16
6,3 km/h
W-SW
30,8 km/h
18:06  
---
5 Minuten
73 %49 %
17:46
91 %
08:17
47 klux103 klux
12:16
10:49 Std 
15.
August
21,1 C17,4 C
03:27
25,0 C
13:03
1006,1 hPa1002,0 hPa
23:34
1008,5 hPa
00:02
11,1 km/h
W-SW
39,4 km/h
12:38  
1,8 l/m
2:21 Stunden
79 %69 %
13:08
89 %
03:57
22 klux114 klux
12:58
2:00 Std 
16.
August
18,2 C14,4 C
23:59
22,9 C
01:04
1009,3 hPa1001,9 hPa
00:39
1016,3 hPa
23:59
22,5 km/h
W
51,0 km/h
13:09  
4,7 l/m
5:15 Stunden
75 %48 %
16:04
93 %
05:44
39 klux108 klux
12:04
6:50 Std 
17.
August
15,5 C12,4 C
23:50
20,6 C
14:49
1018,4 hPa1016,3 hPa
00:04
1020,7 hPa
23:50
12,4 km/h
W-SW
41,4 km/h
12:14  
---
69 %52 %
14:54
85 %
07:04
44 klux115 klux
12:39
8:55 Std 
18.
August
14,3 C8,4 C
06:55
20,7 C
18:20
1018,0 hPa1014,6 hPa
18:15
1020,8 hPa
01:35
1,2 km/h
W-SW
15,4 km/h
11:20  
---
75 %60 %
16:10
88 %
07:55
32 klux114 klux
13:10
5:45 Std 
19.
August
16,0 C11,2 C
05:56
22,9 C
17:46
1011,0 hPa1007,1 hPa
18:21
1015,6 hPa
00:21
4,2 km/h
W-SW
34,4 km/h
20:46  
1,5 l/m
55 Minuten
78 %57 %
18:06
90 %
08:21
34 klux102 klux
14:11
4:40 Std 
20.
August
15,4 C11,6 C
23:58
18,7 C
13:52
1007,0 hPa1005,9 hPa
04:47
1008,2 hPa
22:28
10,0 km/h
W-SW
33,1 km/h
08:52  
0,3 l/m
40 Minuten
80 %65 %
14:12
90 %
01:22
23 klux115 klux
13:47
1:40 Std 
21.
August
13,0 C9,0 C
05:28
16,3 C
14:38
1006,7 hPa1004,9 hPa
22:34
1007,7 hPa
05:28
5,7 km/h
W-SW
25,9 km/h
21:13  
1,8 l/m
8:59 Stunden
90 %85 %
00:03
94 %
11:43
14 klux64 klux
11:33
10 Min 
22.
August
15,1 C12,9 C
07:59
19,8 C
16:19
1007,7 hPa1004,9 hPa
00:04
1012,2 hPa
23:49
8,1 km/h
SW
25,4 km/h
15:59  
24,0 l/m
10:10 Stunden
90 %71 %
16:09
97 %
09:24
19,7 klux108,0 klux
15:04
1:20 Std 
23.
August
18,0 C13,3 C
07:39
24,6 C
17:44
1013,9 hPa1012,2 hPa
00:04
1018,3 hPa
23:50
2,2 km/h
SO
18,9 km/h
13:49  
0,2 l/m
1:00 Stunden
79 %55 %
18:24
95 %
08:29
42 klux102 klux
13:34
8:40 Std 
24.
August
17,7 C11,8 C
05:10
25,3 C
16:55
1022,3 hPa1018,3 hPa
00:00
1026,6 hPa
23:56
1,0 km/h
NW
11,8 km/h
14:00  
---
78 %58 %
17:00
91 %
07:45
41 klux98 klux
13:30
8:35 Std 
25.
August
19,0 C12,2 C
07:31
27,3 C
16:36
1027,0 hPa1025,2 hPa
17:51
1028,8 hPa
08:56
4,2 km/h
NW
21,9 km/h
14:56  
---
77 %54 %
17:11
93 %
09:21
46,3 klux87,7 klux
14:21
12:00 Std 
26.
August
18,4 C13,2 C
06:42
25,6 C
16:32
1026,2 hPa1023,6 hPa
19:22
1027,8 hPa
05:17
4,8 km/h
NW
22,6 km/h
13:52  
---
80 %59 %
16:57
94 %
10:07
40,1 klux92,2 klux
12:42
8:25 Std 
27.
August
16,1 C12,1 C
23:59
21,1 C
15:48
1022,6 hPa1019,8 hPa
17:53
1025,6 hPa
01:18
3,3 km/h
NW
19,8 km/h
15:58  
---
77 %57 %
16:03
94 %
09:38
35,5 klux99,2 klux
14:08
5:50 Std 
28.
August
13,5 C8,4 C
05:24
19,6 C
17:04
1020,1 hPa1017,6 hPa
23:46
1022,2 hPa
08:14
0,7 km/h
N-NW
9,8 km/h
10:39  
---
76 %60 %
17:09
90 %
07:59
34 klux85 klux
14:54
5:00 Std 
29.
August
14,1 C9,5 C
07:41
20,7 C
16:31
1016,7 hPa1015,6 hPa
16:31
1018,9 hPa
23:57
2,7 km/h
N
22,5 km/h
13:51  
---
70 %50 %
17:01
84 %
07:31
41,9 klux95,7 klux
14:06
9:35 Std 
30.
August
12,5 C5,2 C
06:52
20,7 C
16:07
1019,1 hPa1017,6 hPa
16:07
1020,6 hPa
06:52
5,7 km/h
NW
26,9 km/h
17:02  
---
71 %48 %
16:07
89 %
09:27
45,1 klux90,9 klux
14:07
9:40 Std 
31.
August
14,9 C13,9 C
03:08
17,6 C
15:38
1018,7 hPa1017,1 hPa
15:58
1019,5 hPa
03:08
13,6 km/h
W
30,4 km/h
21:43  
1,7 l/m
2:25 Stunden
85 %72 %
00:03
93 %
14:02
13,7 klux75,5 klux
15:28
45 Min 



August
2007

Temperatur

  

Luftdruck

  

Wind

  

Regen

  

Luftfeuchte

  

Helligkeit

Sonnen-
schein

Min

Max

Min

Max

Max

Max

Min

Max

Max

Max

16,5 C

5,2 C

06:52 Uhr
30.08.2007

30,8 C

16:30 Uhr
06.08.2007

1015,2 hPa

1001,9 hPa

00:39 Uhr
16.08.2007

1028,8 hPa

08:56 Uhr
25.08.2007

6,1 km/h

W-SW

51,0 km/h

13:09 Uhr
16.08.2007

30,1 l/m

13:56 Stunden
09.08.2007

78 %

36 %

18:30 Uhr
06.08.2007

99 %

12:02 Uhr
09.08.2007

33,6 klux

115,0 klux

12:39 Uhr
17.08.2007

13:41 Std

am
05.08.2007

Gesamt

Gesamt

124,5 l/m

15 Tage
80:27 h

205:20 Std


Wetter-Diagramme August 2007     Heinzenberg / Taunus   
TemperaturLuftfeuchte
SolarstrahlungLuftdruck
HelligkeitSonnenschein
RegenmengeRegendauer
Wind-GeschwindigkeitWind-Richtung